| time (UTC) | temp F | wind direction | speed knots | gust knots | rain 1hr in | rain 24hr in | rain mn in | humidity % | barometer mb |
| 20260505041532 | 69 | 240 | 3.5 | 13.9 | 0.00 | 0.00 | 0.00 | 61 | 1031.3 |
| 20260505041028 | 69 | 274 | 2.6 | 9.6 | 0.00 | 0.00 | 0.00 | 61 | 1031.3 |
| 20260505040528 | 69 | 233 | 3.5 | 11.3 | 0.00 | 0.00 | 0.00 | 61 | 1031.3 |
| 20260505040028 | 69 | 282 | 2.6 | 11.3 | 0.00 | 0.00 | 0.00 | 60 | 1031.3 |
| 20260505035527 | 69 | 262 | 4.3 | 10.4 | 0.00 | 0.00 | 0.00 | 60 | 1031.3 |
| 20260505035027 | 69 | 288 | 2.6 | 8.7 | 0.00 | 0.00 | 0.00 | 60 | 1031.3 |
| 20260505034530 | 70 | 298 | 3.5 | 8.7 | 0.00 | 0.00 | 0.00 | 60 | 1031.3 |
| 20260505034027 | 70 | 276 | 4.3 | 8.7 | 0.00 | 0.00 | 0.00 | 60 | 1031.3 |
| 20260505033530 | 70 | 261 | 4.3 | 9.6 | 0.00 | 0.00 | 0.00 | 59 | 1031.3 |
| 20260505033029 | 70 | 281 | 4.3 | 9.6 | 0.00 | 0.00 | 0.00 | 59 | 1031.3 |
| 20260505032528 | 70 | 285 | 2.6 | 9.6 | 0.00 | 0.00 | 0.00 | 58 | 1031.3 |
| 20260505032027 | 70 | 294 | 4.3 | 9.6 | 0.00 | 0.00 | 0.00 | 58 | 1031.3 |
| 20260505031526 | 71 | 290 | 2.6 | 7.8 | 0.00 | 0.00 | 0.00 | 58 | 1031.3 |
| 20260505031026 | 71 | 288 | 2.6 | 10.4 | 0.00 | 0.00 | 0.00 | 57 | 1031.3 |
| 20260505030526 | 71 | 296 | 4.3 | 10.4 | 0.00 | 0.00 | 0.00 | 57 | 1031.3 |
| 20260505030029 | 71 | 293 | 3.5 | 8.7 | 0.00 | 0.00 | 0.00 | 57 | 1031.3 |
| 20260505025529 | 71 | 288 | 2.6 | 10.4 | 0.00 | 0.00 | 0.00 | 56 | 1031.3 |
| 20260505025026 | 71 | 266 | 5.2 | 13.0 | 0.00 | 0.00 | 0.00 | 56 | 1031.3 |
| 20260505024525 | 72 | 301 | 5.2 | 13.0 | 0.00 | 0.00 | 0.00 | 56 | 1031.3 |
| 20260505024025 | 72 | 278 | 5.2 | 10.4 | 0.00 | 0.00 | 0.00 | 55 | 1031.3 |
| 20260505023525 | 72 | 309 | 4.3 | 10.4 | 0.00 | 0.00 | 0.00 | 55 | 1031.3 |
| 20260505023025 | 72 | 235 | 4.3 | 9.6 | 0.00 | 0.00 | 0.00 | 55 | 1031.3 |
| 20260505022525 | 72 | 286 | 4.3 | 9.6 | 0.00 | 0.00 | 0.00 | 54 | 1031.3 |
| 20260505022024 | 73 | 207 | 3.5 | 9.6 | 0.00 | 0.00 | 0.00 | 54 | 1031.3 |
| 20260505021525 | 73 | 267 | 3.5 | 13.0 | 0.00 | 0.00 | 0.00 | 54 | 1031.3 |
| 20260505021024 | 73 | 323 | 3.5 | 10.4 | 0.00 | 0.00 | 0.00 | 53 | 1031.3 |
| 20260505020524 | 73 | 240 | 2.6 | 7.8 | 0.00 | 0.00 | 0.00 | 53 | 1031.3 |
| 20260505020024 | 73 | 244 | 2.6 | 7.8 | 0.00 | 0.00 | 0.00 | 53 | 1031.3 |
| 20260505015524 | 73 | 286 | 2.6 | 5.2 | 0.00 | 0.00 | 0.00 | 52 | 1031.3 |
| 20260505015024 | 73 | 266 | 0.9 | 5.2 | 0.00 | 0.00 | 0.00 | 52 | 1031.3 |
| 20260505014524 | 74 | 293 | 1.7 | 6.1 | 0.00 | 0.00 | 0.00 | 51 | 1031.3 |
| 20260505014026 | 74 | 278 | 1.7 | 7.0 | 0.00 | 0.00 | 0.00 | 51 | 1031.3 |
| 20260505013523 | 74 | 256 | 3.5 | 9.6 | 0.00 | 0.00 | 0.00 | 51 | 1031.3 |
| 20260505013023 | 74 | 289 | 4.3 | 9.6 | 0.00 | 0.00 | 0.00 | 51 | 1031.3 |
| 20260505012523 | 74 | 250 | 3.5 | 7.8 | 0.00 | 0.00 | 0.00 | 51 | 1031.3 |
| 20260505012023 | 74 | 297 | 1.7 | 7.8 | 0.00 | 0.00 | 0.00 | 51 | 1031.3 |
| 20260505011522 | 75 | 245 | 3.5 | 7.8 | 0.00 | 0.00 | 0.00 | 50 | 1031.3 |
| 20260505011023 | 75 | 261 | 3.5 | 7.8 | 0.00 | 0.00 | 0.00 | 50 | 1031.3 |
| 20260505010523 | 75 | 305 | 3.5 | 7.0 | 0.00 | 0.00 | 0.00 | 49 | 1031.3 |
| 20260505010023 | 75 | 250 | 3.5 | 9.6 | 0.00 | 0.00 | 0.00 | 49 | 1031.3 |
| 20260505005523 | 75 | 264 | 5.2 | 9.6 | 0.00 | 0.00 | 0.00 | 49 | 1031.3 |
| 20260505005022 | 75 | 341 | 2.6 | 13.0 | 0.00 | 0.00 | 0.00 | 48 | 1031.3 |
| 20260505004521 | 75 | 269 | 5.2 | 9.6 | 0.00 | 0.00 | 0.00 | 48 | 1031.3 |
| 20260505004022 | 76 | 273 | 3.5 | 9.6 | 0.00 | 0.00 | 0.00 | 49 | 1031.3 |
| 20260505003523 | 76 | 248 | 1.7 | 7.0 | 0.00 | 0.00 | 0.00 | 49 | 1031.3 |
| 20260505003023 | 76 | 274 | 2.6 | 7.8 | 0.00 | 0.00 | 0.00 | 48 | 1031.3 |
| 20260505002521 | 76 | 292 | 1.7 | 8.7 | 0.00 | 0.00 | 0.00 | 48 | 1031.3 |
| 20260505002021 | 77 | 278 | 3.5 | 12.2 | 0.00 | 0.00 | 0.00 | 47 | 1031.3 |
| 20260505001521 | 77 | 262 | 4.3 | 12.2 | 0.00 | 0.00 | 0.00 | 47 | 1031.3 |
| 20260505001020 | 77 | 280 | 2.6 | 10.4 | 0.00 | 0.00 | 0.00 | 46 | 1031.3 |
| 20260505000521 | 77 | 277 | 4.3 | 13.9 | 0.00 | 0.00 | 0.00 | 46 | 1031.3 |
| 20260505000021 | 77 | 341 | 3.5 | 13.9 | 0.00 | 0.00 | 0.00 | 45 | 1031.3 |
| 20260504235521 | 78 | 314 | 4.3 | 13.9 | 0.00 | 0.00 | 0.00 | 44 | 1031.3 |
| 20260504235024 | 78 | 297 | 6.1 | 13.9 | 0.00 | 0.00 | 0.00 | 43 | 1031.3 |
| 20260504234522 | 78 | 291 | 7.8 | 15.6 | 0.00 | 0.00 | 0.00 | 43 | 1031.3 |
| 20260504234020 | 78 | 300 | 7.8 | 17.4 | 0.00 | 0.00 | 0.00 | 42 | 1031.3 |
| 20260504233520 | 78 | 309 | 7.0 | 17.4 | 0.00 | 0.00 | 0.00 | 43 | 1031.3 |
| 20260504233019 | 78 | 297 | 7.8 | 16.5 | 0.00 | 0.00 | 0.00 | 43 | 1031.3 |
| 20260504232520 | 78 | 314 | 7.0 | 19.1 | 0.00 | 0.00 | 0.00 | 43 | 1031.3 |
| 20260504232019 | 79 | 307 | 9.6 | 19.1 | 0.00 | 0.00 | 0.00 | 43 | 1031.3 |
| 20260504231519 | 79 | 322 | 8.7 | 18.2 | 0.00 | 0.00 | 0.00 | 42 | 1031.3 |
| 20260504231019 | 79 | 333 | 6.1 | 14.8 | 0.00 | 0.00 | 0.00 | 42 | 1031.3 |
| 20260504230519 | 79 | 309 | 7.8 | 17.4 | 0.00 | 0.00 | 0.00 | 42 | 1031.3 |
| 20260504230020 | 79 | 296 | 8.7 | 17.4 | 0.00 | 0.00 | 0.00 | 41 | 1031.3 |
| 20260504225521 | 80 | 276 | 7.8 | 20.0 | 0.00 | 0.00 | 0.00 | 41 | 1031.3 |
| 20260504225020 | 80 | 281 | 9.6 | 24.3 | 0.00 | 0.00 | 0.00 | 42 | 1031.3 |
| 20260504224517 | 80 | 296 | 10.4 | 24.3 | 0.00 | 0.00 | 0.00 | 40 | 1031.3 |
| 20260504224020 | 80 | 323 | 7.0 | 20.0 | 0.00 | 0.00 | 0.00 | 41 | 1031.3 |
| 20260504223518 | 80 | 281 | 10.4 | 19.1 | 0.00 | 0.00 | 0.00 | 41 | 1031.3 |
| 20260504223018 | 80 | 268 | 6.1 | 20.9 | 0.00 | 0.00 | 0.00 | 41 | 1031.3 |
| 20260504222517 | 80 | 322 | 6.1 | 20.9 | 0.00 | 0.00 | 0.00 | 41 | 1031.3 |
| 20260504222017 | 80 | 297 | 8.7 | 20.0 | 0.00 | 0.00 | 0.00 | 42 | 1031.3 |
| 20260504221517 | 80 | 298 | 9.6 | 20.9 | 0.00 | 0.00 | 0.00 | 41 | 1031.3 |
| 20260504221017 | 80 | 281 | 12.2 | 20.9 | 0.00 | 0.00 | 0.00 | 41 | 1031.3 |
| 20260504220520 | 80 | 326 | 8.7 | 19.1 | 0.00 | 0.00 | 0.00 | 41 | 1031.3 |
| 20260504220017 | 81 | 296 | 8.7 | 17.4 | 0.00 | 0.00 | 0.00 | 41 | 1031.3 |
| 20260504215517 | 81 | 311 | 6.1 | 15.6 | 0.00 | 0.00 | 0.00 | 41 | 1031.3 |
| 20260504215016 | 80 | 314 | 6.1 | 18.2 | 0.00 | 0.00 | 0.00 | 41 | 1031.3 |
| 20260504214516 | 81 | 309 | 10.4 | 20.0 | 0.00 | 0.00 | 0.00 | 41 | 1031.3 |
| 20260504214015 | 80 | 300 | 7.8 | 20.0 | 0.00 | 0.00 | 0.00 | 42 | 1031.3 |
| 20260504213515 | 80 | 276 | 4.3 | 18.2 | 0.00 | 0.00 | 0.00 | 43 | 1031.3 |
| 20260504213018 | 80 | 292 | 8.7 | 20.9 | 0.00 | 0.00 | 0.00 | 42 | 1031.3 |
| 20260504212518 | 80 | 306 | 7.8 | 20.9 | 0.00 | 0.00 | 0.00 | 43 | 1031.3 |
| 20260504212015 | 80 | 348 | 9.6 | 19.1 | 0.00 | 0.00 | 0.00 | 43 | 1031.3 |
| 20260504211514 | 79 | 284 | 8.7 | 21.7 | 0.00 | 0.00 | 0.00 | 42 | 1031.3 |
| 20260504211014 | 79 | 278 | 8.7 | 22.6 | 0.00 | 0.00 | 0.00 | 43 | 1031.3 |
| 20260504210514 | 79 | 333 | 8.7 | 16.5 | 0.00 | 0.00 | 0.00 | 44 | 1031.3 |
| 20260504210014 | 79 | 297 | 5.2 | 13.9 | 0.00 | 0.00 | 0.00 | 44 | 1031.3 |
| 20260504205514 | 79 | 353 | 7.0 | 19.1 | 0.00 | 0.00 | 0.00 | 43 | 1031.3 |
| 20260504205013 | 79 | 338 | 3.5 | 19.1 | 0.00 | 0.00 | 0.00 | 44 | 1031.3 |
| 20260504204513 | 80 | 255 | 6.1 | 15.6 | 0.00 | 0.00 | 0.00 | 43 | 1031.3 |
| 20260504204016 | 80 | 302 | 6.1 | 15.6 | 0.00 | 0.00 | 0.00 | 43 | 1031.3 |
| 20260504203513 | 79 | 307 | 7.0 | 20.0 | 0.00 | 0.00 | 0.00 | 43 | 1031.3 |
| 20260504203017 | 79 | 264 | 7.8 | 20.0 | 0.00 | 0.00 | 0.00 | 44 | 1031.3 |
| 20260504202511 | 79 | 276 | 5.2 | 16.5 | 0.00 | 0.00 | 0.00 | 45 | 1031.3 |
| 20260504202010 | 79 | 344 | 7.0 | 20.9 | 0.00 | 0.00 | 0.00 | 45 | 1031.3 |
| 20260504201510 | 79 | 312 | 8.7 | 20.9 | 0.00 | 0.00 | 0.00 | 44 | 1031.3 |
| 20260504201018 | 79 | 285 | 8.7 | 16.5 | 0.00 | 0.00 | 0.00 | 46 | 1031.3 |
| 20260504200510 | 78 | 244 | 5.2 | 16.5 | 0.00 | 0.00 | 0.00 | 48 | 1031.3 |
| 20260504200011 | 78 | 309 | 5.2 | 18.2 | 0.00 | 0.00 | 0.00 | 47 | 1031.3 |
| 20260504195509 | 78 | 269 | 7.0 | 18.2 | 0.00 | 0.00 | 0.00 | 47 | 1031.3 |
| 20260504195013 | 78 | 280 | 5.2 | 14.8 | 0.00 | 0.00 | 0.00 | 47 | 1031.3 |
| 20260504194509 | 77 | 261 | 9.6 | 14.8 | 0.00 | 0.00 | 0.00 | 46 | 1031.3 |
| 20260504194010 | 77 | 271 | 5.2 | 14.8 | 0.00 | 0.00 | 0.00 | 47 | 1031.3 |
| 20260504193512 | 76 | 293 | 3.5 | 11.3 | 0.00 | 0.00 | 0.00 | 47 | 1031.3 |
| 20260504193015 | 76 | 293 | 5.2 | 11.3 | 0.00 | 0.00 | 0.00 | 47 | 1031.3 |
| 20260504192509 | 76 | 256 | 5.2 | 10.4 | 0.00 | 0.00 | 0.00 | 47 | 1031.3 |
| 20260504192008 | 76 | 271 | 4.3 | 13.0 | 0.00 | 0.00 | 0.00 | 47 | 1031.3 |
| 20260504191521 | 76 | 297 | 3.5 | 15.6 | 0.00 | 0.00 | 0.00 | 46 | 1031.3 |
| 20260504191010 | 77 | 308 | 7.0 | 15.6 | 0.00 | 0.00 | 0.00 | 46 | 1031.3 |
| 20260504190508 | 77 | 206 | 7.0 | 19.1 | 0.00 | 0.00 | 0.00 | 45 | 1031.3 |
| 20260504190008 | 77 | 293 | 7.0 | 19.1 | 0.00 | 0.00 | 0.00 | 46 | 1031.3 |
| 20260504185509 | 77 | 289 | 7.0 | 16.5 | 0.00 | 0.00 | 0.00 | 46 | 1031.3 |
| 20260504185007 | 78 | 328 | 7.8 | 17.4 | 0.00 | 0.00 | 0.00 | 45 | 1031.3 |
| 20260504184507 | 78 | 326 | 8.7 | 19.1 | 0.00 | 0.00 | 0.00 | 44 | 1031.3 |
| 20260504184007 | 78 | 321 | 8.7 | 20.9 | 0.00 | 0.00 | 0.00 | 44 | 1031.3 |
| 20260504183507 | 78 | 281 | 12.2 | 23.5 | 0.00 | 0.00 | 0.00 | 43 | 1031.3 |
| 20260504183007 | 78 | 293 | 10.4 | 19.1 | 0.00 | 0.00 | 0.00 | 44 | 1031.3 |
| 20260504182514 | 79 | 289 | 6.1 | 18.2 | 0.00 | 0.00 | 0.00 | 44 | 1031.3 |
| 20260504182009 | 79 | 294 | 8.7 | 18.2 | 0.00 | 0.00 | 0.00 | 43 | 1031.3 |
| 20260504181505 | 79 | 311 | 8.7 | 16.5 | 0.00 | 0.00 | 0.00 | 45 | 1031.3 |
| 20260504181005 | 78 | 285 | 6.1 | 13.9 | 0.00 | 0.00 | 0.00 | 44 | 1031.3 |
| 20260504180505 | 78 | 330 | 5.2 | 16.5 | 0.00 | 0.00 | 0.00 | 44 | 1031.3 |
| 20260504180007 | 78 | 315 | 7.0 | 16.5 | 0.00 | 0.00 | 0.00 | 45 | 1031.3 |
| 20260504175505 | 78 | 300 | 7.8 | 15.6 | 0.00 | 0.00 | 0.00 | 44 | 1031.3 |
| 20260504175004 | 78 | 306 | 2.6 | 17.4 | 0.00 | 0.00 | 0.00 | 46 | 1031.3 |
| 20260504174503 | 78 | 297 | 7.0 | 15.6 | 0.00 | 0.00 | 0.00 | 45 | 1031.3 |
| 20260504174002 | 78 | 302 | 8.7 | 15.6 | 0.00 | 0.00 | 0.00 | 44 | 1031.3 |
| 20260504173501 | 77 | 276 | 9.6 | 22.6 | 0.00 | 0.00 | 0.00 | 45 | 1031.3 |
| 20260504173001 | 77 | 311 | 11.3 | 22.6 | 0.00 | 0.00 | 0.00 | 44 | 1031.3 |
| 20260504172501 | 77 | 293 | 6.1 | 22.6 | 0.00 | 0.00 | 0.00 | 45 | 1031.3 |
| 20260504172001 | 77 | 283 | 13.9 | 22.6 | 0.00 | 0.00 | 0.00 | 44 | 1031.3 |
| 20260504171501 | 77 | 269 | 8.7 | 20.0 | 0.00 | 0.00 | 0.00 | 44 | 1031.3 |
| 20260504171100 | 77 | 302 | 6.1 | 20.0 | 0.00 | 0.00 | 0.00 | 45 | 1031.3 |
| 20260504170601 | 77 | 290 | 8.7 | 22.6 | 0.00 | 0.00 | 0.00 | 45 | 1031.3 |
| 20260504151041 | 71 | 302 | 9.6 | 22.6 | 0.00 | 0.00 | 0.00 | 50 | 1031.3 |
| 20260504150540 | 71 | 281 | 8.7 | 18.2 | 0.00 | 0.00 | 0.00 | 50 | 1031.3 |
| 20260504141030 | 68 | 283 | 6.1 | 18.2 | 0.00 | 0.00 | 0.00 | 55 | 1031.3 |
| 20260504140529 | 67 | 311 | 7.8 | 18.2 | 0.00 | 0.00 | 0.00 | 55 | 1031.3 |
| 20260504130525 | 64 | 290 | 6.1 | 12.2 | 0.00 | 0.00 | 0.00 | 58 | 1031.3 |
| 20260504110516 | 63 | 290 | 4.3 | 13.0 | 0.00 | 0.00 | 0.00 | 57 | 1031.3 |
| 20260504100512 | 64 | 284 | 3.5 | 10.4 | 0.00 | 0.00 | 0.00 | 57 | 1031.3 |
| 20260504081601 | 64 | 287 | 5.2 | 12.2 | 0.00 | 0.00 | 0.00 | 57 | 1031.3 |
| 20260504081057 | 64 | 304 | 3.5 | 11.3 | 0.00 | 0.00 | 0.00 | 57 | 1031.3 |
| 20260504080556 | 64 | 314 | 5.2 | 11.3 | 0.00 | 0.00 | 0.00 | 56 | 1031.3 |
| 20260504050533 | 67 | 277 | 4.3 | 10.4 | 0.00 | 0.00 | 0.00 | 49 | 1031.3 |
| 20260504045537 | 67 | 248 | 2.6 | 9.6 | 0.00 | 0.00 | 0.00 | 49 | 1031.3 |
| 20260504045035 | 67 | 293 | 3.5 | 10.4 | 0.00 | 0.00 | 0.00 | 49 | 1031.3 |
| 20260504044533 | 67 | 278 | 3.5 | 10.4 | 0.00 | 0.00 | 0.00 | 49 | 1031.3 |
| 20260504044035 | 67 | 248 | 3.5 | 10.4 | 0.00 | 0.00 | 0.00 | 49 | 1031.3 |
| 20260504043532 | 67 | 274 | 2.6 | 10.4 | 0.00 | 0.00 | 0.00 | 49 | 1031.3 |
| 20260504043032 | 67 | 298 | 2.6 | 9.6 | 0.00 | 0.00 | 0.00 | 49 | 1031.3 |
| 20260504042532 | 67 | 276 | 2.6 | 8.7 | 0.00 | 0.00 | 0.00 | 49 | 1031.3 |